Location: Foligno
(42.9600°N, 12.7050°E)
Time: 03:34:17
(UTC+02:00)

ISS - Visible Passes

Search period start: 21 September 2017 00:00
Search period end: 01 October 2017 00:00
Orbit: 402 x 407 km, 51.6° (Epoch: 21 September)

Date Brightness Start Highest point End Pass type
(mag) Time Alt. Az. Time Alt. Az. Time Alt. Az.
21 Sep -2.2 04:59:41 26° SE 04:59:41 26° SE 05:01:17 10° SE visible
22 Sep -1.4 05:43:25 11° SSW 05:43:25 11° SSW 05:43:45 10° SSW visible
24 Sep -2.1 20:34:40 10° SSW 20:36:09 21° S 20:36:09 21° S visible
25 Sep -2.0 19:43:18 10° S 19:45:23 16° SE 19:46:44 13° ESE visible
25 Sep -1.4 21:18:15 10° WSW 21:19:25 20° WSW 21:19:25 20° WSW visible
26 Sep -3.9 20:25:54 10° SW 20:29:09 69° SE 20:29:45 52° E visible
27 Sep -3.1 19:33:49 10° SSW 19:36:50 36° SE 19:39:53 10° ENE visible
27 Sep -1.9 21:10:16 10° W 21:12:33 30° NW 21:12:33 30° NW visible
28 Sep -3.2 20:17:36 10° WSW 20:20:49 55° NNW 20:22:31 24° NE visible
29 Sep -3.9 19:25:07 10° SW 19:28:23 85° SSE 19:31:41 10° ENE visible
29 Sep -1.7 21:02:27 10° WNW 21:05:01 23° NNW 21:05:01 23° NNW visible
30 Sep -2.2 20:09:36 10° W 20:12:34 31° NNW 20:14:44 15° NE visible
